Time,TemperatureF,DewpointF,PressureIn,WindDirection,WindDirectionDegrees,WindSpeedMPH,WindSpeedGustMPH,Humidity,HourlyPrecipIn,Conditions,Clouds,dailyrainin,SoftwareType,DateUTC
2013-02-19 00:01:00,54.0,43.0,29.85,North,8,5.0,11.0,65,0.00,,,-99.99,,2013-02-19 08:01:00,
2013-02-19 00:11:00,54.0,43.0,29.85,North,8,5.0,11.0,65,0.00,,,-99.99,,2013-02-19 08:11:00,
2013-02-19 00:21:00,54.0,42.0,29.84,West,259,4.0,10.0,64,0.00,,,-99.99,,2013-02-19 08:21:00,
2013-02-19 00:31:00,55.0,43.0,29.84,WNW,285,3.0,11.0,63,0.00,,,-99.99,,2013-02-19 08:31:00,
2013-02-19 00:41:00,55.0,43.0,29.84,WNW,285,3.0,11.0,63,0.00,,,-99.99,,2013-02-19 08:41:00,
2013-02-19 00:52:00,54.0,42.0,29.84,NW,305,2.0,10.0,63,0.00,,,-99.99,,2013-02-19 08:52:00,
2013-02-19 01:01:00,54.0,42.0,29.84,WNW,300,5.0,12.0,63,0.00,,,-99.99,,2013-02-19 09:01:00,
2013-02-19 01:11:00,54.0,42.0,29.84,WNW,300,5.0,12.0,63,0.00,,,-99.99,,2013-02-19 09:11:00,
2013-02-19 01:21:00,54.0,42.0,29.84,West,267,5.0,18.0,63,0.00,,,-99.99,,2013-02-19 09:21:00,
2013-02-19 01:31:00,54.0,41.0,29.84,NW,318,8.0,16.0,61,0.00,,,-99.99,,2013-02-19 09:31:00,
2013-02-19 01:41:00,54.0,41.0,29.84,NW,318,8.0,16.0,61,0.00,,,-99.99,,2013-02-19 09:41:00,
2013-02-19 01:52:00,54.0,41.0,29.84,NW,321,7.0,12.0,61,0.00,,,-99.99,,2013-02-19 09:52:00,
2013-02-19 02:01:00,54.0,40.0,29.83,WNW,284,7.0,16.0,60,0.00,,,-99.99,,2013-02-19 10:01:00,
2013-02-19 02:11:00,54.0,40.0,29.83,WNW,284,7.0,16.0,60,0.00,,,-99.99,,2013-02-19 10:11:00,
2013-02-19 02:21:00,54.0,40.0,29.82,NNW,348,5.0,14.0,58,0.00,,,-99.99,,2013-02-19 10:21:00,
2013-02-19 02:31:00,54.0,39.0,29.82,NW,314,7.0,15.0,57,0.00,,,-99.99,,2013-02-19 10:31:00,
2013-02-19 02:41:00,54.0,39.0,29.82,NW,314,7.0,15.0,57,0.00,,,-99.99,,2013-02-19 10:41:00,
2013-02-19 02:52:00,54.0,39.0,29.81,WSW,240,7.0,15.0,57,0.00,,,-99.99,,2013-02-19 10:52:00,
2013-02-19 03:01:00,54.0,39.0,29.81,NNW,331,6.0,15.0,57,0.00,,,-99.99,,2013-02-19 11:01:00,
2013-02-19 03:11:00,54.0,38.0,29.80,West,266,7.0,16.0,55,0.00,,,-99.99,,2013-02-19 11:11:00,
2013-02-19 03:21:00,54.0,38.0,29.80,West,266,7.0,16.0,55,0.00,,,-99.99,,2013-02-19 11:21:00,
2013-02-19 03:31:00,54.0,38.0,29.80,WNW,285,4.0,12.0,54,0.00,,,-99.99,,2013-02-19 11:31:00,
2013-02-19 03:41:00,54.0,38.0,29.80,WNW,285,4.0,12.0,54,0.00,,,-99.99,,2013-02-19 11:41:00,
2013-02-19 03:52:00,54.0,38.0,29.80,NNW,343,6.0,12.0,54,0.00,,,-99.99,,2013-02-19 11:52:00,
2013-02-19 04:01:00,54.0,38.0,29.80,WNW,288,5.0,15.0,55,0.00,,,-99.99,,2013-02-19 12:01:00,
2013-02-19 04:12:00,54.0,38.0,29.80,WNW,288,5.0,15.0,55,0.00,,,-99.99,,2013-02-19 12:12:00,
2013-02-19 04:21:00,53.0,37.0,29.79,WSW,249,7.0,14.0,55,0.00,,,-99.99,,2013-02-19 12:21:00,
2013-02-19 04:32:00,53.0,38.0,29.79,WNW,288,6.0,17.0,56,0.00,,,-99.99,,2013-02-19 12:32:00,
2013-02-19 04:41:00,53.0,38.0,29.79,WNW,288,6.0,17.0,56,0.00,,,-99.99,,2013-02-19 12:41:00,
2013-02-19 04:52:00,53.0,37.0,29.79,WNW,292,8.0,14.0,55,0.00,,,-99.99,,2013-02-19 12:52:00,
2013-02-19 05:01:00,53.0,37.0,29.79,NW,309,7.0,17.0,55,0.00,,,-99.99,,2013-02-19 13:01:00,
2013-02-19 05:11:00,53.0,37.0,29.79,NW,309,7.0,17.0,55,0.00,,,-99.99,,2013-02-19 13:11:00,
2013-02-19 05:22:00,53.0,36.0,29.79,NW,312,7.0,14.0,53,0.00,,,-99.99,,2013-02-19 13:22:00,
2013-02-19 05:31:00,53.0,35.0,29.80,SW,232,7.0,14.0,51,0.00,,,-99.99,,2013-02-19 13:31:00,
2013-02-19 05:41:00,53.0,35.0,29.80,SW,232,7.0,14.0,51,0.00,,,-99.99,,2013-02-19 13:41:00,
2013-02-19 05:52:00,53.0,35.0,29.80,WNW,302,7.0,15.0,51,0.00,,,-99.99,,2013-02-19 13:52:00,
2013-02-19 06:01:00,54.0,35.0,29.80,WNW,293,7.0,16.0,49,0.00,,,-99.99,,2013-02-19 14:01:00,
2013-02-19 06:11:00,54.0,35.0,29.80,WNW,293,7.0,16.0,49,0.00,,,-99.99,,2013-02-19 14:11:00,
2013-02-19 06:21:00,53.0,35.0,29.80,SW,219,6.0,20.0,50,0.00,,,-99.99,,2013-02-19 14:21:00,
2013-02-19 06:32:00,53.0,35.0,29.80,WNW,294,6.0,21.0,50,0.00,,,-99.99,,2013-02-19 14:32:00,
2013-02-19 06:41:00,53.0,35.0,29.80,WNW,294,6.0,21.0,50,0.00,,,-99.99,,2013-02-19 14:41:00,
2013-02-19 06:52:00,53.0,34.0,29.81,West,259,7.0,18.0,48,0.00,,,-99.99,,2013-02-19 14:52:00,
2013-02-19 07:01:00,53.0,34.0,29.81,NW,317,7.0,18.0,48,0.00,,,-99.99,,2013-02-19 15:01:00,
2013-02-19 07:11:00,53.0,34.0,29.81,NW,317,7.0,18.0,48,0.00,,,-99.99,,2013-02-19 15:11:00,
2013-02-19 07:21:00,54.0,34.0,29.81,West,281,8.0,17.0,46,0.00,,,-99.99,,2013-02-19 15:21:00,
2013-02-19 07:31:00,54.0,34.0,29.81,WNW,291,6.0,17.0,46,0.00,,,-99.99,,2013-02-19 15:31:00,
2013-02-19 07:41:00,54.0,34.0,29.81,WNW,291,6.0,17.0,46,0.00,,,-99.99,,2013-02-19 15:41:00,
2013-02-19 07:52:00,54.0,34.0,29.81,WSW,257,5.0,18.0,46,0.00,,,-99.99,,2013-02-19 15:52:00,
2013-02-19 08:01:00,55.0,35.0,29.82,SSE,150,8.0,19.0,46,0.00,,,-99.99,,2013-02-19 16:01:00,
2013-02-19 08:11:00,55.0,35.0,29.82,SSE,150,8.0,19.0,46,0.00,,,-99.99,,2013-02-19 16:11:00,
2013-02-19 08:21:00,55.0,33.0,29.81,NW,305,6.0,19.0,44,0.00,,,-99.99,,2013-02-19 16:21:00,
2013-02-19 08:31:00,55.0,33.0,29.81,NE,44,10.0,18.0,44,0.00,,,-99.99,,2013-02-19 16:31:00,
2013-02-19 08:41:00,55.0,33.0,29.81,NE,44,10.0,18.0,44,0.00,,,-99.99,,2013-02-19 16:41:00,
2013-02-19 08:52:00,55.0,33.0,29.81,WNW,293,8.0,21.0,43,0.00,,,-99.99,,2013-02-19 16:52:00,
2013-02-19 09:01:00,56.0,33.0,29.80,WNW,293,9.0,20.0,41,0.00,,,-99.99,,2013-02-19 17:01:00,
2013-02-19 09:11:00,56.0,33.0,29.80,WNW,293,9.0,20.0,41,0.00,,,-99.99,,2013-02-19 17:11:00,
2013-02-19 09:21:00,56.0,33.0,29.81,WNW,293,10.0,18.0,41,0.00,,,-99.99,,2013-02-19 17:21:00,
2013-02-19 09:31:00,56.0,33.0,29.80,NW,323,6.0,18.0,42,0.00,,,-99.99,,2013-02-19 17:31:00,
2013-02-19 09:41:00,57.0,33.0,29.80,South,187,11.0,19.0,40,0.00,,,-99.99,,2013-02-19 17:41:00,
2013-02-19 09:52:00,57.0,33.0,29.80,South,187,11.0,19.0,40,0.00,,,-99.99,,2013-02-19 17:52:00,
2013-02-19 10:01:00,57.0,34.0,29.80,WSW,248,9.0,20.0,41,0.00,,,-99.99,,2013-02-19 18:01:00,
2013-02-19 10:11:00,57.0,34.0,29.80,WSW,248,9.0,20.0,41,0.00,,,-99.99,,2013-02-19 18:11:00,
2013-02-19 10:21:00,57.0,32.0,29.80,WNW,291,12.0,27.0,39,0.00,,,-99.99,,2013-02-19 18:21:00,
2013-02-19 10:31:00,58.0,33.0,29.80,NNW,328,7.0,22.0,38,0.00,,,-99.99,,2013-02-19 18:31:00,
2013-02-19 10:41:00,59.0,33.0,29.80,NW,312,9.0,21.0,37,0.00,,,-99.99,,2013-02-19 18:41:00,
2013-02-19 10:52:00,59.0,33.0,29.80,NW,312,9.0,21.0,37,0.00,,,-99.99,,2013-02-19 18:52:00,
2013-02-19 11:01:00,59.0,33.0,29.79,NW,319,8.0,22.0,37,0.00,,,-99.99,,2013-02-19 19:01:00,
2013-02-19 11:11:00,59.0,33.0,29.79,NW,319,8.0,22.0,37,0.00,,,-99.99,,2013-02-19 19:11:00,
2013-02-19 11:21:00,60.0,34.0,29.79,NNW,328,6.0,19.0,38,0.00,,,-99.99,,2013-02-19 19:21:00,
2013-02-19 11:31:00,61.0,34.0,29.78,West,260,8.0,19.0,36,0.00,,,-99.99,,2013-02-19 19:31:00,
2013-02-19 11:41:00,61.0,34.0,29.78,West,260,8.0,19.0,36,0.00,,,-99.99,,2013-02-19 19:41:00,
2013-02-19 11:52:00,61.0,33.0,29.78,NW,326,7.0,20.0,35,0.00,,,-99.99,,2013-02-19 19:52:00,
2013-02-19 12:01:00,61.0,35.0,29.76,WNW,290,5.0,16.0,37,0.00,,,-99.99,,2013-02-19 20:01:00,
2013-02-19 12:11:00,61.0,35.0,29.76,WNW,290,5.0,16.0,37,0.00,,,-99.99,,2013-02-19 20:11:00,
2013-02-19 12:21:00,61.0,35.0,29.75,WSW,240,6.0,17.0,37,0.00,,,-99.99,,2013-02-19 20:21:00,
2013-02-19 12:31:00,61.0,35.0,29.75,WNW,282,6.0,20.0,38,0.00,,,-99.99,,2013-02-19 20:31:00,
2013-02-19 12:41:00,61.0,35.0,29.75,WNW,282,6.0,20.0,38,0.00,,,-99.99,,2013-02-19 20:41:00,
2013-02-19 12:52:00,62.0,34.0,29.74,West,274,7.0,16.0,35,0.00,,,-99.99,,2013-02-19 20:52:00,
2013-02-19 13:01:00,61.0,35.0,29.73,WNW,300,7.0,19.0,38,0.00,,,-99.99,,2013-02-19 21:01:00,
2013-02-19 13:11:00,61.0,35.0,29.73,WNW,300,7.0,19.0,38,0.00,,,-99.99,,2013-02-19 21:11:00,
2013-02-19 13:21:00,61.0,36.0,29.72,West,278,7.0,14.0,39,0.00,,,-99.99,,2013-02-19 21:21:00,
2013-02-19 13:31:00,60.0,36.0,29.72,NNW,333,6.0,18.0,41,0.00,,,-99.99,,2013-02-19 21:31:00,
2013-02-19 13:42:00,60.0,36.0,29.72,NNW,333,6.0,18.0,41,0.00,,,-99.99,,2013-02-19 21:42:00,
2013-02-19 13:51:00,59.0,37.0,29.71,NW,319,5.0,14.0,44,0.00,,,-99.99,,2013-02-19 21:51:00,
2013-02-19 14:01:00,60.0,37.0,29.71,ENE,68,6.0,15.0,42,0.00,,,-99.99,,2013-02-19 22:01:00,
2013-02-19 14:11:00,60.0,37.0,29.71,ENE,68,6.0,15.0,42,0.00,,,-99.99,,2013-02-19 22:11:00,
2013-02-19 14:21:00,60.0,36.0,29.71,NW,319,5.0,11.0,40,0.00,,,-99.99,,2013-02-19 22:21:00,
2013-02-19 14:31:00,60.0,37.0,29.70,SW,231,6.0,14.0,43,0.00,,,-99.99,,2013-02-19 22:31:00,
2013-02-19 14:41:00,60.0,37.0,29.70,SW,231,6.0,14.0,43,0.00,,,-99.99,,2013-02-19 22:41:00,
2013-02-19 14:52:00,60.0,37.0,29.70,NW,312,4.0,15.0,42,0.00,,,-99.99,,2013-02-19 22:52:00,
2013-02-19 15:01:00,60.0,37.0,29.70,West,274,5.0,14.0,43,0.00,,,-99.99,,2013-02-19 23:01:00,
2013-02-19 15:11:00,60.0,37.0,29.70,West,274,5.0,14.0,43,0.00,,,-99.99,,2013-02-19 23:11:00,
2013-02-19 15:21:00,61.0,38.0,29.70,NW,321,6.0,18.0,42,0.00,,,-99.99,,2013-02-19 23:21:00,
2013-02-19 15:31:00,61.0,39.0,29.70,WNW,294,7.0,15.0,44,0.00,,,-99.99,,2013-02-19 23:31:00,
2013-02-19 15:41:00,61.0,39.0,29.70,WNW,294,7.0,15.0,44,0.00,,,-99.99,,2013-02-19 23:41:00,
2013-02-19 15:52:00,62.0,38.0,29.70,WNW,302,7.0,15.0,41,0.00,,,-99.99,,2013-02-19 23:52:00,
2013-02-19 16:01:00,61.0,40.0,29.70,NW,308,6.0,16.0,45,0.00,,,-99.99,,2013-02-20 00:01:00,
2013-02-19 16:11:00,61.0,40.0,29.70,NW,308,6.0,16.0,45,0.00,,,-99.99,,2013-02-20 00:11:00,
2013-02-19 16:21:00,59.0,37.0,29.69,WNW,302,4.0,13.0,44,0.00,,,-99.99,,2013-02-20 00:21:00,
2013-02-19 16:31:00,58.0,40.0,29.69,North,1,7.0,15.0,52,0.00,,,-99.99,,2013-02-20 00:31:00,
2013-02-19 16:41:00,58.0,40.0,29.69,North,1,7.0,15.0,52,0.00,,,-99.99,,2013-02-20 00:41:00,
2013-02-19 16:52:00,58.0,39.0,29.69,NNW,335,4.0,13.0,50,0.00,,,-99.99,,2013-02-20 00:52:00,
2013-02-19 17:02:00,57.0,38.0,29.69,NE,49,7.0,15.0,49,0.00,,,-99.99,,2013-02-20 01:02:00,
2013-02-19 17:11:00,57.0,38.0,29.69,NE,49,7.0,15.0,49,0.00,,,-99.99,,2013-02-20 01:11:00,
2013-02-19 17:21:00,56.0,38.0,29.68,NNW,327,4.0,14.0,51,0.00,,,-99.99,,2013-02-20 01:21:00,
2013-02-19 17:31:00,55.0,38.0,29.69,NW,314,4.0,12.0,53,0.00,,,-99.99,,2013-02-20 01:31:00,
2013-02-19 17:41:00,55.0,38.0,29.69,NW,314,4.0,12.0,53,0.00,,,-99.99,,2013-02-20 01:41:00,
2013-02-19 17:52:00,55.0,39.0,29.69,West,276,3.0,13.0,55,0.00,,,-99.99,,2013-02-20 01:52:00,
2013-02-19 18:01:00,55.0,39.0,29.68,West,278,6.0,12.0,54,0.00,,,-99.99,,2013-02-20 02:01:00,
2013-02-19 18:11:00,55.0,39.0,29.68,West,278,6.0,12.0,54,0.00,,,-99.99,,2013-02-20 02:11:00,
2013-02-19 18:21:00,54.0,39.0,29.69,NW,321,4.0,10.0,56,0.00,,,-99.99,,2013-02-20 02:21:00,
2013-02-19 18:31:00,54.0,38.0,29.68,West,277,2.0,8.0,54,0.00,,,-99.99,,2013-02-20 02:31:00,
2013-02-19 18:41:00,54.0,38.0,29.68,West,277,2.0,8.0,54,0.00,,,-99.99,,2013-02-20 02:41:00,
2013-02-19 18:52:00,54.0,38.0,29.68,NW,316,3.0,10.0,54,0.00,,,-99.99,,2013-02-20 02:52:00,
2013-02-19 19:01:00,53.0,37.0,29.67,WNW,299,3.0,7.0,55,0.00,,,-99.99,,2013-02-20 03:01:00,
2013-02-19 19:11:00,53.0,37.0,29.67,WNW,299,3.0,7.0,55,0.00,,,-99.99,,2013-02-20 03:11:00,
2013-02-19 19:21:00,53.0,38.0,29.68,NW,324,2.0,8.0,56,0.00,,,-99.99,,2013-02-20 03:21:00,
2013-02-19 19:31:00,53.0,37.0,29.67,NE,46,3.0,8.0,55,0.00,,,-99.99,,2013-02-20 03:31:00,
2013-02-19 19:41:00,53.0,37.0,29.67,NE,46,3.0,8.0,55,0.00,,,-99.99,,2013-02-20 03:41:00,
2013-02-19 19:51:00,52.0,36.0,29.67,NW,312,1.0,8.0,55,0.00,,,-99.99,,2013-02-20 03:51:00,
2013-02-19 20:01:00,53.0,35.0,29.68,NW,314,0.0,6.0,51,0.00,,,-99.99,,2013-02-20 04:01:00,
2013-02-19 20:11:00,53.0,35.0,29.68,NW,314,0.0,6.0,51,0.00,,,-99.99,,2013-02-20 04:11:00,
2013-02-19 20:21:00,53.0,36.0,29.68,West,277,3.0,9.0,52,0.00,,,-99.99,,2013-02-20 04:21:00,
2013-02-19 20:31:00,53.0,36.0,29.68,NNW,333,3.0,8.0,53,0.00,,,-99.99,,2013-02-20 04:31:00,
2013-02-19 20:41:00,53.0,36.0,29.68,NNW,333,3.0,8.0,53,0.00,,,-99.99,,2013-02-20 04:41:00,
2013-02-19 20:52:00,52.0,38.0,29.68,SW,215,3.0,11.0,58,0.00,,,-99.99,,2013-02-20 04:52:00,
2013-02-19 21:01:00,52.0,37.0,29.69,West,268,4.0,12.0,57,0.00,,,-99.99,,2013-02-20 05:01:00,
2013-02-19 21:12:00,52.0,37.0,29.69,West,268,4.0,12.0,57,0.00,,,-99.99,,2013-02-20 05:12:00,
2013-02-19 21:22:00,51.0,36.0,29.68,West,260,0.0,5.0,56,0.00,,,-99.99,,2013-02-20 05:22:00,
2013-02-19 21:31:00,52.0,36.0,29.68,WSW,257,2.0,6.0,54,0.00,,,-99.99,,2013-02-20 05:31:00,
2013-02-19 21:42:00,52.0,36.0,29.68,WSW,257,2.0,6.0,54,0.00,,,-99.99,,2013-02-20 05:42:00,
2013-02-19 21:52:00,51.0,37.0,29.68,East,82,0.0,1.0,58,0.00,,,-99.99,,2013-02-20 05:52:00,
2013-02-19 22:01:00,51.0,36.0,29.67,ESE,112,0.0,2.0,56,0.00,,,-99.99,,2013-02-20 06:01:00,
2013-02-19 22:11:00,50.0,35.0,29.67,West,279,1.0,4.0,57,0.00,,,-99.99,,2013-02-20 06:11:00,
2013-02-19 22:21:00,50.0,35.0,29.67,West,279,1.0,4.0,57,0.00,,,-99.99,,2013-02-20 06:21:00,
2013-02-19 22:31:00,50.0,35.0,29.66,ENE,61,1.0,3.0,57,0.00,,,-99.99,,2013-02-20 06:31:00,
2013-02-19 22:41:00,50.0,35.0,29.66,ENE,61,1.0,3.0,57,0.00,,,-99.99,,2013-02-20 06:41:00,
2013-02-19 22:52:00,49.0,35.0,29.65,North,353,2.0,5.0,58,0.00,,,-99.99,,2013-02-20 06:52:00,
2013-02-19 23:01:00,49.0,34.0,29.64,WNW,298,2.0,5.0,56,0.00,,,-99.99,,2013-02-20 07:01:00,
2013-02-19 23:11:00,49.0,34.0,29.64,WNW,298,2.0,5.0,56,0.00,,,-99.99,,2013-02-20 07:11:00,
2013-02-19 23:21:00,49.0,36.0,29.63,WSW,255,6.0,16.0,60,0.00,,,-99.99,,2013-02-20 07:21:00,
2013-02-19 23:31:00,49.0,36.0,29.64,WNW,284,4.0,10.0,61,0.00,,,-99.99,,2013-02-20 07:31:00,
2013-02-19 23:41:00,49.0,36.0,29.64,WNW,284,4.0,10.0,61,0.00,,,-99.99,,2013-02-20 07:41:00,
2013-02-19 23:52:00,49.0,35.0,29.66,SW,223,0.0,6.0,59,0.00,,,-99.99,,2013-02-20 07:52:00,